map of BLK home
BLK - Airport
Location
City:  Blackpool, Lancashire, England, United Kingdom
Name:Squire's Gate Airport
ICAO:EGNH
IATA:BLK

Details
Type:Airport (Aerodrome, Airfield)
Use:Public/Civil, International (customs port of entry)
Latitude:5346'18"N (53.771667)
Longitude:301'43"W (-3.028610)
Datum:WGS 1984
Elevation:34 ft (10 m)
Variation:1.70W (WMM2015 magnetic declination)
0.16 annual change
Runways:3
Longest:6132 × 151 ft (1869 × 46 m), paved

Time
Time Zone:UTC+0 (DST+1)
Local Time:

Weather
METAR:EGNH 211950Z 25008KT 9999 BKN034 18/16 Q1016

Related Locations
Nearby:
Farthest:NZBA: 11821 mi / 19024 km
Balclutha, OTA, NZ

Find:

   beyond  
but within

Other Information
Maps:
NOTAMs:
Links:
Sources:

  
  • flag of United Kingdom
  • flag of England
  • flag of Lancashire
  

Sectional Chart

Flight Planning
at skyvector.com

Satellite Image

Google Maps Satellite view

 

Copyright © 2004-2018 Karl L. Swartz. All rights reserved.
The Great Circle Mapper name and logo are trademarks of the Great Circle Mapper.
All other trademarks mentioned herein belong to their respective owners.
Please see credits for attibutions and further copyright information.

  Follow gcmap on Facebook Follow gcmap on Twitter Follow gcmap on Google+ GCmap on LinkedIn

hCard Microformat

Geo Microformat